Regional Weather Roundup
Issued by NWS

Home | Current Version | Previous Version | Graphics & Text | Print | Product List | Glossary On
Versions: 1 2 3 4 5 6 7 8 9 10 11 12 13 14 15 16 17 18 19 20 21 22 23 24 25 26 27 28 29 30 31 32 33 34 35 36 37 38 39 40 41 42 43 44 45 46 47 48 49 50
000
ASUS43 KIND 181459
RWRIN

WEATHER ROUNDUP FOR INDIANA
NATIONAL WEATHER SERVICE INDIANAPOLIS IN
1100 AM EDT FRI APR 18 2014

NOTE: "FAIR" INDICATES FEW OR NO CLOUDS BELOW 12,000 FEET WITH NO
SIGNIFICANT WEATHER AND/OR OBSTRUCTIONS TO VISIBILITY.

* - STATION DOES NOT REPORT WEATHER SUCH AS PRECIPITATION OR FOG.

+ - STATION NOT QUALITY CONTROLLED BY THE NATIONAL WEATHER SERVICE.
    USE DATA WITH CAUTION...ESPECIALLY DEWPOINT AND RELATIVE
    HUMIDITY OBSERVATIONS.

INZ001>003-010>013-019-020-181600-
NORTHWEST INDIANA

CITY           SKY/WX    TMP DP  RH WIND       PRES   REMARKS
GARY /AIRPORT/ MOSUNNY   46  36  66 N14       30.35R
VALPARAISO     SUNNY     52  39  61 N6        30.31R

$$

LMZ046-743>745-181600-
SOUTHERN LAKE MICHIGAN

STATION/POSITION TIME  TEMP WIND        PRES
                       AIR  DIR/SP/G
                 (UTC) (F)  (DEG/KT/KT) (MB)
MICHIGAN CITY    1400   39  280/ 10/ 11   N/A

$$

INZ004-005-014>016-021>024-181600-
NORTH CENTRAL INDIANA

CITY           SKY/WX    TMP DP  RH WIND       PRES   REMARKS
ELKHART        SUNNY     55  41  58 W6        30.29
GOSHEN         SUNNY     57  43  59 W5        30.28S
SOUTH BEND     SUNNY     56  41  57 NW5       30.31R

$$

INZ006>009-017-018-025>027-181600-
NORTHEAST INDIANA

CITY           SKY/WX    TMP DP  RH WIND       PRES   REMARKS
ANGOLA *+      SUNNY     57  45  62 W8        30.27S
FORT WAYNE     MOSUNNY   62  40  44 VRB7      30.29S

$$

INZ028-029-035-036-043>045-051>053-181600-
WEST CENTRAL INDIANA

CITY           SKY/WX    TMP DP  RH WIND       PRES   REMARKS
GREENCASTLE +  SUNNY     59  41  51 CALM      30.29S
LAFAYETTE      SUNNY     58  40  51 CALM      30.30R
TERRE HAUTE    SUNNY     60  40  47 CALM      30.30R

$$

INZ030>032-037>040-046>048-054>057-064-065-181600-
CENTRAL INDIANA

CITY           SKY/WX    TMP DP  RH WIND       PRES   REMARKS
INDIANAPOLIS   MOSUNNY   60  39  45 VRB5      30.29S
-EAGLE CREEK   SUNNY     60  38  43 CALM      30.28S
KOKOMO *+      SUNNY     61  41  48 CALM      30.29
MT COMFORT *+  MOSUNNY   61  39  44 S3        30.29S
SHELBYVILLE    PTSUNNY   60  41  49 S5        30.29S

$$

INZ033-034-041-042-049-050-058-059-181600-
EAST CENTRAL INDIANA

CITY           SKY/WX    TMP DP  RH WIND       PRES   REMARKS
MUNCIE         SUNNY     60  39  45 CALM      30.29S

$$

INZ060-061-067>069-081>083-085>088-181600-
SOUTHWEST INDIANA

CITY           SKY/WX    TMP DP  RH WIND       PRES   REMARKS
EVANSVILLE     SUNNY     62  40  44 CALM      30.30S
HUNTINGBURG *+ SUNNY     61  43  51 W3        30.30S

$$

INZ062-063-066-070>080-084-089>092-181600-
SOUTH CENTRAL AND SOUTHEAST INDIANA

CITY           SKY/WX    TMP DP  RH WIND       PRES   REMARKS
BLOOMINGTON    MOSUNNY   61  39  44 CALM      30.29S

$$




USA.gov is the U.S. government's official web portal to all federal, state and local government web resources and services.